Theta_e
310 309 309 310 310 311 311 312 311 313 313 311 310 311 312 313 313 313 317 318 318 315 313 318 317 318 319 321 323 325 328 330 332 332 342 336 341 344 343 344 346 349 349 349 348
310 310 310 310 310 310 311 312 312 312 313 311 312 314 315 315 314 319 320 317 315 313 315 318 318 318 319 320 322 324 326 327 329 331 331 335 339 342 343 346 348 349 349 350 348
310 310 310 310 310 310 310 311 312 312 313 312 314 315 315 315 322 326 321 315 313 313 315 318 319 320 320 321 322 323 324 326 327 328 328 331 341 340 341 347 346 347 348 348 347
310 310 310 310 310 309 310 310 311 312 313 313 315 316 316 315 331 328 321 315 313 315 319 318 319 320 322 323 322 323 323 324 325 325 327 330 342 341 341 347 346 346 346 346 344
309 309 310 310 310 309 309 310 310 312 313 314 316 316 316 325 325 323 323 316 313 318 320 319 320 321 323 324 323 323 324 323 323 323 326 336 342 346 349 346 345 344 345 344 343
309 309 309 309 309 310 309 310 310 311 313 314 316 316 319 325 324 325 324 320 318 320 321 320 320 322 323 323 323 323 324 323 323 323 324 335 345 345 346 344 343 343 343 343 342
308 308 308 309 309 310 310 310 310 311 313 314 316 316 321 323 323 324 321 319 320 321 321 320 323 323 324 325 323 325 326 328 329 326 325 339 344 346 344 344 344 343 342 341 340
308 308 308 308 309 310 310 310 310 311 314 314 315 316 322 320 321 323 319 319 319 320 320 321 321 323 324 325 324 329 329 332 331 327 332 338 337 344 343 343 343 342 341 339 337
307 308 308 308 309 310 310 310 310 311 314 313 315 320 322 320 321 323 320 319 319 320 321 321 321 322 323 326 325 326 329 332 335 333 335 337 347 343 343 343 342 341 339 337 334
306 307 308 308 309 310 310 311 311 312 313 312 319 322 321 321 322 323 322 322 321 321 322 321 322 324 325 325 325 326 326 329 337 336 337 336 347 343 342 343 342 342 339 336 333
306 306 308 308 308 309 310 316 322 324 321 320 324 320 321 323 324 324 322 322 322 322 324 322 324 324 324 325 326 327 327 328 328 334 335 333 348 345 342 342 342 342 339 336 331
306 306 308 308 309 310 310 317 317 318 320 321 320 322 321 323 323 323 323 323 324 325 324 325 324 325 325 325 325 327 327 328 334 338 336 333 347 345 341 342 342 341 338 335 330
305 306 308 309 309 311 314 313 315 317 320 321 320 322 323 322 324 324 323 323 325 325 325 325 326 325 324 324 324 327 327 333 332 334 334 336 340 345 342 340 340 340 338 335 331
305 306 308 309 311 312 313 317 317 318 324 325 322 321 322 323 324 323 324 323 325 325 325 324 325 324 324 324 325 326 327 331 336 333 332 335 335 344 342 342 340 340 338 335 332
304 305 307 307 308 312 314 315 317 320 326 325 323 322 321 323 325 324 324 323 325 324 325 324 325 324 324 325 325 326 328 329 333 332 335 339 334 333 342 344 342 339 337 334 332
304 305 308 310 311 312 313 312 316 324 325 324 325 323 323 322 324 324 323 322 323 324 324 326 325 325 325 326 326 330 328 331 332 332 333 331 335 340 342 341 340 338 337 335 332
304 306 307 309 313 313 315 316 323 325 324 323 327 325 324 323 325 326 325 324 325 324 325 325 327 326 326 326 326 329 331 332 332 329 327 331 331 329 338 334 333 340 338 336 333
304 306 309 309 313 312 314 321 324 325 325 326 327 326 325 325 325 325 326 325 324 325 326 326 327 326 326 326 328 328 329 330 328 332 330 329 328 333 334 332 332 334 339 336 333
304 313 314 321 320 314 315 319 324 325 325 323 324 327 326 325 325 325 325 326 325 326 327 327 328 326 326 327 328 328 328 328 329 330 330 328 328 332 331 332 333 333 336 337 333
304 315 319 318 321 316 316 317 320 323 323 324 325 326 328 326 326 326 325 325 325 325 326 329 329 326 326 326 326 328 328 328 328 328 330 327 328 330 330 332 333 333 335 335 333
311 315 321 319 319 319 318 317 318 318 322 323 324 325 328 329 327 326 326 326 325 326 325 328 330 329 326 326 326 326 327 328 329 332 332 328 329 329 329 329 331 331 332 333 331
313 317 318 319 324 322 322 319 317 318 319 322 323 326 327 328 329 328 327 327 324 325 325 326 330 331 328 327 327 329 328 329 330 330 331 332 329 328 328 327 326 327 331 331 331
310 315 319 320 324 325 324 322 319 319 320 322 323 323 325 327 330 328 327 325 324 325 326 327 328 332 331 330 328 328 328 330 332 332 333 332 329 328 327 326 326 326 328 329 330
313 317 320 320 321 324 326 325 324 321 321 319 322 323 324 326 327 330 328 327 325 324 323 327 329 331 332 332 329 328 327 328 329 332 330 329 328 328 328 328 327 328 327 328 329
311 315 317 316 320 320 323 325 324 324 323 323 323 322 324 327 327 328 330 328 327 324 327 331 330 330 329 329 329 328 328 328 328 329 331 329 328 327 327 327 326 328 328 328 328
307 308 307 307 311 315 317 323 325 324 325 325 326 325 328 327 327 329 331 333 329 328 329 331 331 330 330 329 328 330 331 328 328 327 328 328 327 328 328 326 325 328 328 328 327
305 305 307 309 311 314 318 322 322 322 323 324 325 324 327 329 328 328 328 330 333 331 332 332 332 331 330 329 328 328 327 328 328 328 328 329 328 327 328 326 326 328 328 327 327
Wind_Speed
15 15 14 14 14 14 13 13 12 11 11 11 10 9 8 9 11 13 13 13 12 16 11 8 10 12 14 18 17 13 13 14 14 9 17 13 11 11 9 14 13 11 20 17 14
16 16 16 15 15 14 14 13 12 12 11 10 8 8 9 11 14 18 16 18 18 15 12 12 13 13 17 17 16 17 13 19 16 9 7 11 8 16 13 16 18 20 18 16 14
17 17 17 17 16 15 15 14 13 12 11 9 8 8 10 12 12 5 10 12 13 15 13 12 12 12 17 14 17 17 18 14 8 3 7 11 10 16 19 12 14 20 18 16 13
18 18 18 18 18 17 16 15 13 12 10 8 7 8 10 10 3 4 4 7 11 14 10 12 14 16 16 14 16 16 18 14 7 10 13 9 11 16 12 23 17 17 16 14 12
19 19 19 19 18 18 17 16 14 12 10 7 7 8 9 8 11 5 4 7 12 11 12 12 15 16 14 12 13 14 10 10 7 7 14 14 13 9 19 18 17 16 14 13 12
20 20 20 20 20 19 17 16 14 12 10 7 7 8 8 16 1 3 6 10 11 11 11 13 12 14 13 11 12 16 8 11 13 14 18 15 19 11 13 17 17 15 14 12 11
21 21 21 21 20 19 18 17 14 12 9 8 7 8 11 14 5 5 9 10 11 11 10 13 7 8 9 8 10 5 10 9 12 19 13 22 15 9 17 17 17 14 13 11 10
22 22 22 22 22 20 19 17 14 10 8 8 7 7 10 6 8 8 9 10 11 11 7 8 9 13 12 3 9 13 18 13 12 15 14 19 18 16 17 18 16 15 13 12 11
22 22 23 23 23 21 19 17 12 9 7 7 5 6 15 9 12 12 11 10 11 11 8 7 9 16 14 10 13 13 14 19 14 17 15 21 14 16 17 18 17 15 14 12 11
23 23 22 23 23 21 18 14 9 7 7 7 10 8 17 14 15 14 15 10 13 12 11 12 11 12 12 14 14 16 17 16 16 15 15 19 12 16 17 16 17 17 15 13 11
24 23 23 22 22 21 15 8 6 4 12 15 8 13 4 11 10 14 17 15 14 14 15 18 13 14 18 19 20 14 15 5 4 19 17 21 16 16 16 17 18 18 16 14 12
25 25 23 22 21 16 6 5 9 7 12 19 22 18 9 10 14 18 18 19 17 16 18 13 15 16 16 14 15 14 9 8 10 4 12 17 17 15 18 21 20 18 16 15 14
25 25 24 20 19 7 8 14 8 8 10 18 25 25 23 17 17 20 22 24 18 17 17 16 11 18 8 11 10 16 15 12 11 10 12 9 13 16 17 20 20 19 17 17 16
25 25 24 20 6 9 8 3 2 9 6 12 13 15 24 20 22 20 22 25 16 17 15 14 15 8 12 18 16 16 16 10 11 12 10 11 14 16 17 19 21 23 21 19 18
25 24 22 21 16 6 6 5 7 4 6 10 13 5 19 27 12 25 20 26 18 14 13 15 13 11 15 14 17 18 12 8 10 14 12 28 11 15 24 20 21 23 23 20 18
25 23 21 15 16 7 10 8 5 7 11 9 10 12 16 27 25 21 20 23 17 16 16 18 11 16 16 15 17 7 11 10 12 14 13 17 12 15 19 18 17 21 23 21 19
24 22 19 14 4 6 6 7 7 10 6 10 10 14 18 20 23 17 21 19 16 15 16 15 12 16 4 11 8 11 11 9 12 13 13 9 8 7 12 1 1 22 26 23 20
25 20 16 10 8 8 5 10 15 9 18 3 5 13 17 18 23 20 20 19 21 17 13 15 16 16 14 13 11 17 14 13 5 13 9 4 7 5 11 7 8 5 26 23 22
25 11 7 6 6 6 12 12 16 15 11 12 12 12 15 18 16 17 22 20 21 21 17 14 15 19 18 16 16 15 18 8 10 8 9 9 9 10 11 9 8 5 13 21 22
26 8 4 13 6 7 10 16 18 23 7 10 15 13 17 19 19 20 18 20 20 21 19 8 9 14 12 9 11 12 11 8 9 13 13 8 6 3 8 12 10 7 13 19 21
13 8 1 7 3 11 11 15 18 30 7 12 17 18 11 17 21 20 21 15 20 20 19 14 10 14 14 15 16 12 11 8 5 6 10 6 5 6 3 4 7 13 15 19 20
9 6 0 2 9 13 12 16 18 15 19 13 18 14 10 14 18 20 20 19 16 21 19 18 7 10 17 20 15 13 17 18 10 15 5 10 8 8 4 5 2 3 17 18 20
14 12 4 1 7 10 10 13 13 13 16 18 16 17 16 10 13 15 17 21 19 19 18 14 10 12 9 9 10 12 10 8 18 4 12 10 0 6 7 3 4 6 9 16 19
8 5 3 7 10 9 15 12 15 11 12 20 17 17 18 15 14 11 16 8 11 13 1 9 14 17 14 17 16 19 19 15 9 7 11 11 3 12 11 9 11 10 11 15 19
5 5 5 6 7 11 14 15 17 12 8 13 11 16 19 18 18 18 17 9 9 10 8 11 17 20 21 12 16 12 16 17 16 15 14 12 11 11 12 8 7 12 13 17 19
10 7 12 20 16 14 13 14 17 13 6 13 15 8 11 11 16 16 11 15 15 14 15 13 14 20 20 21 13 18 35 11 15 14 13 10 12 9 9 2 8 7 14 17 19
12 6 10 13 13 9 6 11 10 13 15 13 5 12 14 8 16 16 16 18 21 15 16 15 13 17 19 20 13 18 15 13 11 11 8 10 9 6 3 4 7 9 13 16 18
Wind_Direction
3 357 353 348 343 342 343 342 337 328 321 315 306 299 295 287 278 274 257 240 226 237 218 202 219 224 228 238 237 256 267 256 241 226 151 141 144 55 100 110 75 80 99 129 132
0 356 351 344 338 335 333 334 334 330 322 312 302 301 302 298 287 266 252 248 236 212 197 209 216 214 223 227 223 236 240 252 261 195 242 152 178 143 130 117 105 105 110 120 129
355 352 349 345 338 331 327 325 327 326 320 307 297 302 307 306 294 212 217 226 210 203 207 225 231 218 228 216 213 222 245 245 272 279 238 146 145 155 150 136 137 127 122 125 125
351 349 346 343 339 333 326 320 318 317 315 298 292 304 311 297 305 151 206 202 181 173 213 214 221 219 237 218 223 238 229 271 267 216 246 153 136 195 139 98 129 131 132 130 123
346 345 342 340 337 334 326 318 312 309 308 287 285 305 317 247 255 209 214 179 178 188 204 211 217 221 230 216 209 225 224 220 237 177 208 124 143 86 95 113 130 131 132 128 125
342 340 339 336 335 332 329 318 309 302 298 275 272 295 293 253 229 208 197 191 185 195 211 215 219 229 269 227 207 198 215 201 188 203 200 141 119 127 137 139 138 139 135 133 128
341 339 336 333 332 330 329 321 308 296 288 264 261 285 274 246 206 203 182 187 193 205 224 213 241 218 241 222 212 212 203 198 212 200 191 138 173 120 158 154 149 148 144 136 127
339 338 335 332 330 329 327 322 310 292 275 254 255 280 265 201 208 194 182 195 202 197 219 208 222 238 243 174 191 215 215 197 176 179 165 186 183 145 169 165 164 158 152 142 129
338 337 335 333 329 329 325 321 311 287 262 239 258 243 256 220 202 198 188 179 176 187 202 205 216 227 213 220 209 214 215 217 151 185 167 208 121 159 178 180 167 170 165 154 136
339 336 335 333 328 329 326 320 309 277 255 241 245 254 234 217 195 195 195 197 186 190 197 212 216 224 230 219 214 200 233 201 173 181 182 202 104 156 182 198 180 181 173 164 153
338 337 334 334 328 329 329 330 295 221 217 229 236 222 162 170 170 196 194 197 201 199 216 201 222 215 214 222 249 302 201 195 256 160 206 210 144 160 183 201 192 189 179 172 158
338 336 335 334 329 329 326 302 322 321 289 252 243 236 232 204 201 204 190 200 207 218 214 212 230 245 238 216 243 257 245 195 85 145 234 222 159 173 186 205 205 192 185 178 165
336 335 333 337 334 343 309 290 280 313 266 266 229 225 219 215 227 198 197 208 204 225 209 237 226 210 225 227 224 231 236 143 220 185 225 244 222 192 196 207 203 210 196 189 184
334 333 331 335 346 311 313 312 317 308 274 209 200 230 213 204 228 227 202 212 228 233 229 229 247 223 209 218 215 212 228 167 138 198 211 212 245 150 210 207 206 203 198 190 190
332 329 326 324 311 308 295 300 289 283 275 128 144 150 195 196 166 202 199 212 230 215 231 221 228 200 213 221 194 252 163 212 183 225 226 200 249 223 184 204 204 200 197 193 191
330 325 322 325 319 306 289 269 288 236 245 169 169 198 203 207 222 178 191 215 227 240 227 258 205 200 217 215 199 133 175 194 218 243 231 252 217 144 185 194 190 193 194 194 189
333 321 316 301 256 284 294 209 228 244 108 214 194 193 204 196 207 171 193 200 218 217 210 223 203 224 259 183 170 197 187 210 217 220 237 114 226 313 131 213 51 172 188 188 190
337 323 312 294 272 271 231 226 242 269 238 63 298 185 209 201 210 187 202 207 218 213 200 208 196 186 207 201 183 211 200 255 262 267 163 190 236 111 83 76 67 334 174 177 187
340 338 302 325 292 225 219 229 227 250 296 299 244 246 211 218 211 201 209 215 199 215 242 202 217 176 199 217 207 201 233 296 301 237 270 263 110 145 141 119 124 151 172 172 184
338 325 235 309 239 198 229 244 259 259 303 292 266 253 233 209 210 210 204 217 214 208 240 274 158 172 181 229 239 278 211 211 232 259 260 265 332 55 149 150 149 155 176 173 181
347 291 240 354 151 224 237 241 240 262 237 271 271 269 271 276 212 221 222 212 219 199 215 242 252 180 162 208 206 207 237 242 314 209 280 288 86 136 123 91 160 171 182 178 184
332 285 281 302 253 237 245 240 259 284 278 225 271 294 286 295 295 221 232 228 198 224 210 219 244 224 202 216 233 294 209 222 225 229 303 312 296 93 108 134 181 310 155 175 188
316 290 272 240 267 279 251 245 276 267 264 265 241 255 262 263 275 266 256 225 186 217 206 210 217 232 207 171 212 241 247 183 229 328 216 243 242 152 141 179 215 248 173 176 185
309 295 214 259 267 305 302 299 278 239 248 266 265 262 264 262 267 268 246 162 188 207 153 256 215 231 197 218 204 207 229 213 221 227 250 258 318 205 181 205 207 199 188 180 182
321 18 358 301 325 335 295 286 291 285 283 242 250 258 256 257 256 250 247 178 187 174 213 219 217 238 244 220 275 209 227 193 217 221 242 269 290 324 325 348 347 172 185 174 184
342 342 331 289 283 284 276 262 276 282 312 284 340 288 316 276 257 271 344 294 196 192 219 210 229 238 239 244 239 201 208 209 223 234 261 274 286 320 56 343 265 180 182 179 187
343 313 291 292 274 279 313 356 322 327 291 261 345 316 284 320 322 299 303 299 294 196 205 201 224 236 242 240 239 248 245 234 237 239 251 275 319 3 239 257 199 184 184 188 185